Regional Weather Roundup
Issued by NWS

Home | Current Version | Previous Version | Text Only | Print | Product List | Glossary Off
Versions: 1 2 3 4 5 6 7 8 9 10 11 12 13 14 15 16 17 18 19 20 21 22 23 24 25 26 27 28 29 30 31 32 33 34 35 36 37 38 39 40 41 42 43 44 45 46 47 48 49 50

819
ASUS43 KOAX 251702
RWRNE

WEATHER ROUNDUP FOR NEBRASKA
NATIONAL WEATHER SERVICE OMAHA NE
1200 PM CDT MON SEP 25 2017

NOTES: SATELLITE DATA IS BEING USED TO AUGMENT CLOUD COVER ABOVE
       12000 FEET.
       "FAIR" INDICATES FEW OR NO CLOUDS BELOW 12,000 FEET WITH NO
       SIGNIFICANT WEATHER AND/OR OBSTRUCTIONS TO VISIBILITY.


NEZ001>004-019>022-054>056-251800-
NEBRASKA PANHANDLE

CITY           SKY/WX    TMP DP  RH WIND       PRES   REMARKS
SCOTTSBLUFF    CLOUDY    49  41  74 E3        30.14S
ALLIANCE       CLOUDY    46  41  82 VRB5      30.12S
CHADRON        CLOUDY    46  40  79 E3        30.14F
GORDON         CLOUDY    47  42  83 N5        30.12S
KIMBALL        CLOUDY    44  42  91 N6        30.13S
SIDNEY         CLOUDY    47  44  90 N10       30.12S
$$

NEZ057>060-069>072-079>082-251800-
SOUTHWEST NEBRASKA

CITY           SKY/WX    TMP DP  RH WIND       PRES   REMARKS
NORTH PLATTE   CLOUDY    50  47  89 N12       30.07F
IMPERIAL       CLOUDY    51  47  86 N15       30.06F
LEXINGTON      DRIZZLE   52  48  87 N13       30.03F
MCCOOK         CLOUDY    51  49  92 N15       30.03R
OGALLALA       CLOUDY    51  46  84 NE10      30.08F
$$

NEZ005>010-023>029-035>040-094-251800-
NORTH CENTRAL NEBRASKA

CITY           SKY/WX    TMP DP  RH WIND       PRES   REMARKS
VALENTINE      CLOUDY    50  45  83 N10       30.11F
AINSWORTH      CLOUDY    47  46  97 N13       30.10F
BROKEN BOW     CLOUDY    50  50 100 N20G25    30.04F
O`NEILL        CLOUDY    50  50 100 N10       30.08S FOG
ORD            CLOUDY    51  48  89 N15       30.01F
THEDFORD       CLOUDY    50  46  87 N14       30.09F
$$

NEZ041-046>049-061>064-073>077-083>087-251800-
SOUTH CENTRAL NEBRASKA

CITY           SKY/WX    TMP DP  RH WIND       PRES   REMARKS
GRAND ISLAND   LGT RAIN  52  52 100 N8        30.01F FOG
AURORA         LGT RAIN  53  53 100 N15       30.00F
HASTINGS       LGT RAIN  53  51  93 N9        30.00S
HEBRON         DRIZZLE   60  59  97 N3        29.98F
HOLDREGE       CLOUDY    51  50  95 N14       29.99F
KEARNEY        LGT RAIN  51  50  96 N16       30.02R
YORK           LGT RAIN  55  55 100 NW8       30.02R
$$

NEZ011>018-030>034-042>045-251800-
NORTHEAST NEBRASKA

CITY           SKY/WX    TMP DP  RH WIND       PRES   REMARKS
NORFOLK        RAIN      54  53  97 N10       30.01S FOG
ALBION         RAIN      53  52  95 N8        30.03S
BLAIR          RAIN      63  62  97 NE6       29.95F
COLUMBUS       LGT RAIN  56  54  93 MISG      30.00F
FREMONT        CLOUDY    59  59  99 CALM      29.96F
TEKAMAH        RAIN      61  59  93 N6        29.96F FOG
WAYNE          RAIN      55  52  91 N9        30.02R
$$

NEZ050>053-065>068-078-088>093-251800-
SOUTHEAST NEBRASKA

CITY           SKY/WX    TMP DP  RH WIND       PRES   REMARKS
LINCOLN        LGT RAIN  62  60  93 N8        29.95F
OMAHA EPPLEY   HVY RAIN  65  61  87 N9        29.95F FOG
BEATRICE       HVY RAIN  63  62  99 N3        29.95S
FALLS CITY     CLOUDY    81  67  62 VRB6      29.90F
NEBRASKA CITY  LGT RAIN  69  69 100 N6        29.94F
PLATTSMOUTH    CLOUDY    63  63 100 N3        29.94F
$$

NEZ044-045-051>053-067-251800-
OMAHA AREA

CITY           SKY/WX    TMP DP  RH WIND       PRES   REMARKS
OMAHA EPPLEY   HVY RAIN  65  61  87 N9        29.95F FOG
BLAIR          RAIN      63  62  97 NE6       29.95F
FREMONT        CLOUDY    59  59  99 CALM      29.96F
MILLARD        RAIN      65  64  96 CALM      29.95F
OFFUTT AFB     TSTM      64  62  95 CALM      29.95F
PLATTSMOUTH    CLOUDY    63  63 100 N3        29.94F
WAHOO          LGT RAIN  61  60  97 N9        29.96F
$$




USA.gov is the U.S. government's official web portal to all federal, state and local government web resources and services.